Lapse_Rate
5.0 5.3 5.2 5.0 5.0 5.0 5.4 5.4 5.1 5.0 5.5 5.4 5.1 5.3 5.4 5.4 5.8 6.2 6.3 6.4 6.3 6.2 6.2 6.1 6.0 6.0 6.0 6.0 5.9 5.7 5.5 5.3 5.4 5.5 5.5 5.5 5.5 5.4 5.5 5.4 5.4 5.6 5.7
5.4 5.5 5.3 5.5 5.1 5.1 5.1 5.1 4.9 4.8 5.1 5.0 4.6 5.2 5.3 5.5 5.7 6.4 6.4 6.5 6.2 6.1 6.1 6.0 5.9 5.9 5.7 5.5 5.4 5.4 5.4 5.4 5.6 5.7 5.6 5.6 5.7 5.8 5.8 5.7 5.8 5.8 6.0
5.6 5.1 5.0 5.2 5.5 5.2 4.6 5.3 4.6 5.1 5.0 4.8 4.7 5.2 5.5 5.7 5.8 6.3 6.2 6.1 6.0 5.7 5.8 5.7 5.6 5.7 5.6 5.5 5.6 5.6 5.7 5.8 5.9 6.0 6.1 6.0 6.0 5.9 5.8 5.8 6.0 6.3 6.4
5.1 5.2 5.1 4.8 5.0 4.9 4.7 4.4 4.6 4.5 4.7 4.5 4.8 5.0 5.3 5.6 5.5 5.7 6.0 6.0 6.0 5.7 5.5 5.7 5.6 5.7 5.6 5.7 5.8 5.9 6.1 6.1 6.3 6.3 6.3 6.2 6.2 6.2 6.3 6.5 6.8 6.8 6.6
5.1 5.2 5.1 4.8 5.0 4.9 4.6 4.1 4.5 4.5 4.5 4.5 4.7 4.9 5.3 4.8 5.0 5.8 5.8 6.0 6.0 5.7 5.8 5.7 5.8 5.9 5.8 5.9 5.9 6.1 6.2 6.3 6.5 6.6 6.7 6.8 7.0 7.0 6.9 6.8 6.8 6.6 6.5
5.2 5.1 5.3 5.0 4.8 4.8 4.4 4.3 4.3 4.1 4.4 4.5 4.8 4.6 5.1 5.2 4.9 5.5 5.4 5.6 5.7 6.0 5.8 5.9 5.9 5.9 6.1 6.1 6.2 6.4 6.6 6.7 7.0 7.3 7.4 7.3 7.3 7.3 7.1 7.0 7.0 6.8 6.6
5.6 5.0 5.0 4.9 4.8 4.6 4.8 4.3 4.3 4.3 4.6 4.4 4.9 4.7 4.8 4.6 4.8 5.3 5.2 5.6 5.6 5.9 5.9 6.0 5.9 6.1 6.2 6.5 6.5 6.6 7.0 7.2 7.4 7.5 7.6 7.6 7.5 7.4 7.3 7.2 7.1 6.9 6.7
4.9 5.1 5.2 5.1 5.1 4.8 5.0 4.6 4.7 4.5 4.4 4.6 4.9 4.7 5.1 4.8 4.5 4.8 5.5 5.8 6.1 6.2 6.3 6.2 6.1 6.2 6.4 6.6 6.9 7.1 7.3 7.4 7.4 7.6 7.7 7.6 7.6 7.5 7.4 7.3 7.1 7.0 6.7
5.1 5.3 5.2 5.2 5.1 5.1 4.9 4.6 4.8 4.8 4.7 4.7 4.7 5.0 4.9 4.8 4.8 4.8 4.9 5.3 5.9 6.3 6.6 6.7 6.7 6.6 6.8 7.0 7.4 7.5 7.3 7.3 7.4 7.5 7.6 7.6 7.6 7.6 7.4 7.1 7.0 6.8 6.7
5.3 5.4 5.4 5.4 4.9 5.1 5.0 5.1 4.9 4.5 4.8 4.9 5.1 4.9 5.0 4.9 4.8 5.3 5.3 5.2 5.4 6.5 6.7 6.8 7.3 7.2 7.1 7.3 7.4 7.6 7.5 7.4 7.5 7.5 7.4 7.5 7.5 7.5 7.3 7.2 7.0 6.7 6.7
5.4 5.5 5.4 5.2 5.1 5.1 5.1 5.2 4.9 4.6 4.8 5.0 5.3 5.2 5.1 5.0 5.1 5.3 5.3 5.7 5.9 6.7 7.2 7.3 7.4 7.4 7.3 7.4 7.4 7.5 7.6 7.5 7.4 7.5 7.5 7.6 7.6 7.5 7.3 7.1 6.9 6.8 6.6
5.5 5.4 5.5 5.4 5.3 5.3 5.3 5.4 5.4 5.2 5.0 4.9 5.0 5.2 5.2 5.1 5.3 5.4 5.5 5.8 6.2 6.6 6.8 6.9 7.4 7.5 7.4 7.4 7.5 7.5 7.5 7.5 7.6 7.6 7.6 7.7 7.6 7.5 7.3 7.2 7.0 6.8 6.6
5.7 5.6 5.4 5.4 5.3 5.3 5.3 5.4 5.6 5.4 5.2 5.0 5.1 5.4 5.2 5.3 5.4 5.6 5.6 6.0 6.3 6.7 6.8 6.8 7.2 7.4 7.3 7.4 7.5 7.5 7.6 7.6 7.6 7.6 7.7 7.8 7.8 7.6 7.3 7.1 7.0 6.7 6.6
5.6 5.8 5.6 5.5 5.5 5.4 5.4 5.5 5.5 5.7 5.7 5.4 5.0 5.3 5.4 5.1 5.6 5.4 5.4 6.7 6.6 6.8 7.1 7.1 7.1 7.1 7.4 7.4 7.5 7.5 7.5 7.6 7.5 7.7 7.8 7.9 7.5 7.2 7.1 7.0 6.9 7.0 6.9
5.6 5.8 5.8 5.7 5.7 5.7 5.6 5.6 5.7 5.8 5.8 5.8 5.7 5.4 5.2 5.3 5.4 5.8 6.4 6.2 6.8 6.8 7.1 7.4 7.4 7.4 7.4 7.5 7.5 7.5 7.6 7.5 7.5 7.8 7.8 7.5 7.5 7.4 7.4 7.1 7.0 6.8 6.7
6.0 6.2 6.2 6.1 6.0 5.8 5.9 5.9 5.9 6.0 5.9 6.0 5.9 5.9 5.8 5.9 6.1 6.2 6.6 6.1 6.4 6.6 6.9 7.0 7.1 7.4 7.4 7.3 7.4 7.5 7.4 7.6 7.8 7.9 7.6 7.5 7.5 7.7 7.5 7.3 7.1 7.2 7.1
5.9 6.0 6.3 6.0 6.1 6.2 6.2 6.2 6.1 6.1 6.2 6.4 6.2 6.1 6.2 6.2 6.1 6.1 6.2 6.3 6.5 6.6 6.7 6.9 7.0 7.1 7.2 7.1 7.2 7.1 7.3 7.6 7.7 7.6 7.6 7.7 7.6 7.5 7.5 7.4 7.5 7.4 7.2
5.6 6.0 6.1 6.1 6.1 6.3 6.4 6.3 6.3 6.3 6.2 6.3 6.5 6.4 6.4 6.4 6.4 6.3 6.3 6.4 6.5 6.7 6.9 6.9 6.9 6.9 6.9 7.0 7.1 7.2 7.5 8.0 8.0 7.8 7.9 7.7 7.5 7.5 7.3 7.1 7.3 7.3 7.3
5.7 5.8 6.2 6.6 6.5 6.4 6.4 6.4 6.4 6.4 6.4 6.4 6.5 6.5 6.4 6.4 6.3 6.4 6.4 6.4 6.5 6.6 6.8 6.9 7.0 7.0 7.0 7.1 7.3 7.6 8.0 8.0 7.8 7.7 7.4 7.6 7.3 7.2 7.3 7.2 7.2 7.1 7.1
6.2 6.0 6.1 6.0 6.4 6.3 6.4 6.4 6.5 6.4 6.4 6.4 6.5 6.5 6.6 6.5 6.2 6.2 6.4 6.5 6.6 6.6 6.7 6.9 7.1 7.1 7.1 7.0 7.3 7.9 8.0 7.6 7.3 7.4 7.8 7.4 7.6 7.5 7.2 6.9 6.9 7.3 7.4
6.6 6.4 6.2 6.2 6.1 6.5 6.5 6.5 6.4 6.4 6.4 6.3 6.5 6.6 6.6 6.6 6.5 6.3 6.4 6.5 6.6 6.7 6.8 7.0 7.2 7.2 7.1 7.3 7.6 7.8 7.7 7.9 8.1 7.5 7.8 7.5 7.8 7.3 6.9 7.1 7.3 7.3 7.2
6.8 6.6 6.6 6.6 6.5 6.4 6.6 6.5 6.3 6.4 6.3 6.3 6.5 6.6 6.6 6.7 6.8 6.6 6.5 6.6 6.7 6.8 6.9 7.1 7.2 7.3 7.3 7.6 7.7 7.7 7.5 7.5 8.0 7.8 7.9 7.8 7.5 7.1 7.0 6.9 7.0 7.0 6.8
7.1 6.8 6.7 6.7 6.7 6.7 6.7 6.5 6.2 6.1 6.2 6.3 6.3 6.4 6.5 6.6 6.7 6.7 6.6 6.6 6.8 7.1 7.1 7.2 7.4 7.3 7.6 7.5 7.7 7.8 7.8 8.0 7.9 7.1 7.5 8.3 7.4 7.1 6.8 6.7 6.8 6.8 6.7
6.8 7.0 7.0 6.8 6.7 6.8 6.7 6.5 6.2 6.0 6.0 6.3 6.3 6.3 6.4 6.4 6.6 6.6 6.5 6.6 6.7 7.0 7.2 7.4 7.5 7.5 7.8 7.7 7.6 7.9 8.1 8.5 8.4 8.2 7.6 7.7 7.1 7.0 6.8 6.7 6.6 6.8 6.8
6.9 6.9 7.0 7.0 6.9 6.9 6.7 6.5 6.2 6.1 6.2 6.4 6.4 6.2 6.4 6.4 6.3 6.2 6.5 6.8 6.9 7.1 7.2 7.3 7.4 7.6 7.7 8.0 8.0 8.1 8.2 8.4 8.8 8.7 8.0 7.5 7.0 7.2 7.0 6.7 6.7 6.8 6.7
6.7 6.6 6.7 6.8 6.8 6.8 6.6 6.4 6.1 5.9 6.1 6.5 6.6 6.5 6.4 6.6 6.4 6.2 6.3 6.3 7.1 7.3 7.3 7.7 7.9 8.1 8.2 8.2 8.1 8.2 8.3 8.1 8.1 8.4 7.5 7.3 7.1 6.8 7.1 7.0 6.8 6.7 6.6
Wind_Speed
2 7 8 7 3 5 9 10 9 10 11 10 3 19 15 15 14 13 16 13 13 11 9 8 8 7 6 5 4 3 2 2 3 3 5 5 6 7 8 7 8 8 8
9 6 8 7 6 11 9 6 11 10 5 2 8 17 15 15 15 16 16 14 12 11 10 9 9 8 6 5 3 3 1 1 2 3 3 4 5 5 6 7 7 7 6
12 7 7 9 8 10 10 5 6 6 5 3 3 6 12 13 15 15 14 15 13 12 12 10 10 9 7 6 4 4 2 3 3 4 4 5 6 6 5 5 5 4 4
12 9 5 4 2 6 0 2 3 4 4 3 3 3 7 13 14 14 15 15 16 12 13 12 12 10 9 8 6 5 5 5 5 5 6 6 6 5 4 3 2 2 3
11 8 3 3 2 3 2 1 3 4 3 2 4 4 3 3 9 12 12 13 16 16 15 15 13 11 9 8 7 6 6 6 6 6 6 6 5 4 2 1 2 2 2
13 7 6 5 7 4 3 1 2 2 3 4 4 3 3 4 7 7 8 14 17 16 16 14 15 14 12 10 9 8 7 7 5 4 4 3 4 2 2 3 3 3 3
11 9 4 6 5 4 2 2 2 5 3 3 4 2 2 3 4 4 10 11 9 14 16 15 16 15 13 13 11 10 9 7 6 5 5 4 4 4 4 5 5 5 4
10 8 5 3 6 3 3 3 3 2 2 1 3 2 2 4 2 3 4 5 7 13 11 15 17 17 15 14 13 12 11 9 8 7 7 7 7 7 7 8 8 7 6
13 8 6 7 4 3 3 1 3 5 1 2 1 3 2 2 1 2 2 4 5 4 11 14 17 18 18 18 14 14 14 12 11 10 10 10 10 10 11 11 11 10 9
12 11 8 9 7 4 4 2 1 2 3 1 2 2 2 4 2 1 2 2 3 4 6 7 12 15 14 19 18 18 17 16 15 14 14 14 14 14 14 14 14 14 13
14 15 12 9 6 5 3 4 0 1 2 2 2 1 2 1 1 2 1 2 2 3 4 7 12 15 16 16 20 19 20 21 19 19 19 18 18 17 16 16 16 17 17
4 11 14 10 9 5 4 3 3 3 2 1 1 1 1 2 2 3 2 3 4 4 4 4 7 14 20 19 18 22 24 25 24 24 23 23 22 20 20 20 20 21 21
3 6 8 7 5 8 7 6 4 2 3 2 0 1 1 0 1 2 2 1 1 2 2 3 6 13 17 22 21 24 27 29 28 28 29 28 27 26 25 25 25 25 25
9 7 9 10 10 11 9 7 3 3 4 3 3 1 2 2 1 1 3 3 3 3 2 4 3 11 16 19 26 25 21 28 31 32 32 32 32 33 31 29 28 28 28
6 8 12 10 10 10 10 8 4 4 3 4 4 3 2 3 3 3 2 2 4 1 3 4 2 4 13 15 15 14 18 21 31 33 34 35 36 37 35 32 30 31 30
7 10 11 11 9 8 8 7 5 5 5 4 4 5 4 3 3 2 3 1 2 4 2 3 3 2 3 3 6 13 20 25 27 30 33 36 39 38 37 32 35 32 32
7 11 10 7 9 9 8 8 7 6 7 6 5 6 7 6 4 3 2 2 2 2 3 4 3 3 2 3 10 13 19 20 22 25 29 33 36 38 35 32 35 35 33
7 9 11 11 8 7 8 8 8 7 7 7 8 7 6 5 7 5 3 4 3 2 3 5 2 3 3 6 7 7 13 14 16 22 30 33 32 33 35 38 36 32 32
8 8 9 13 13 11 8 8 8 7 7 7 7 7 7 7 6 4 4 4 3 2 2 2 4 2 4 4 4 3 5 8 14 20 23 25 23 23 25 28 31 33 32
9 10 9 10 9 10 9 8 8 8 7 7 7 7 8 8 7 7 6 6 4 4 3 3 4 4 4 4 1 3 4 2 3 13 17 19 24 21 24 23 23 26 26
15 9 10 8 10 9 8 8 8 10 10 9 7 7 7 9 11 9 5 6 6 5 4 4 4 2 3 3 3 3 3 6 5 5 4 6 7 14 16 18 20 19 18
13 15 13 11 10 10 14 15 12 8 11 12 10 8 7 10 11 12 12 11 8 6 5 3 3 4 5 4 3 4 7 3 4 6 2 9 10 7 9 13 13 26 22
13 13 16 15 14 13 16 18 18 11 10 10 11 10 9 9 9 7 10 15 15 14 13 8 7 8 7 9 5 7 8 6 6 7 3 9 5 4 8 11 20 22 27
17 16 14 14 14 13 15 17 18 14 11 12 11 12 12 12 8 8 8 9 9 10 9 8 10 13 10 9 7 9 9 7 6 7 3 5 3 4 3 13 13 22 23
16 17 15 16 16 15 16 17 13 11 13 13 12 12 11 11 12 14 8 7 7 7 13 23 21 20 24 25 19 2 6 6 8 5 2 2 2 3 3 2 8 20 21
16 13 16 16 16 16 15 19 16 11 10 10 10 10 13 14 15 15 11 11 11 12 6 6 4 7 17 16 24 11 8 6 5 5 3 1 2 2 4 2 4 12 14
Wind_Direction
163 107 79 83 289 287 186 162 202 211 187 235 128 113 125 122 130 134 143 148 150 152 152 150 145 147 148 138 138 126 116 84 51 25 23 17 8 2 4 4 359 352 10
165 160 140 180 204 209 224 183 189 209 224 258 88 104 130 140 142 149 155 156 160 170 168 170 166 171 167 161 141 179 205 48 326 346 350 339 346 348 350 354 349 357 10
168 143 132 197 198 214 221 225 224 135 166 121 88 95 145 152 148 160 168 168 175 180 188 188 186 187 185 189 198 218 240 267 289 305 314 320 324 331 339 347 345 357 50
120 128 173 116 242 271 180 118 79 151 101 188 147 164 134 163 164 166 168 179 184 184 200 200 201 203 205 211 223 244 253 265 279 292 296 302 307 312 316 326 6 91 105
124 112 67 110 10 73 23 39 54 122 143 143 174 166 144 203 159 175 181 179 187 195 200 202 208 213 217 227 235 239 247 257 270 281 288 296 302 306 300 222 134 134 141
143 157 166 202 170 69 24 49 149 170 144 169 161 195 219 222 173 185 188 189 196 184 201 203 205 215 220 229 232 237 241 242 255 265 271 273 277 258 207 204 202 178 169
149 149 151 142 110 127 148 64 76 44 45 183 74 336 266 208 209 202 210 194 193 192 201 201 205 209 215 220 232 235 239 238 239 242 242 239 238 225 222 228 218 211 207
161 157 158 168 152 138 61 81 90 37 19 321 143 133 31 332 294 173 216 192 194 189 201 198 202 206 208 208 220 227 231 233 237 234 236 235 231 229 229 225 226 225 229
169 163 169 146 129 97 148 182 137 102 21 317 237 137 115 210 301 315 176 218 151 174 204 198 202 205 206 206 210 219 221 221 226 229 233 235 235 233 234 233 231 232 238
169 173 172 148 137 142 161 186 158 148 122 252 330 297 150 155 162 355 332 251 247 179 192 207 195 192 186 200 207 210 216 217 220 225 232 235 237 238 238 236 238 240 240
169 175 178 157 156 144 172 150 173 206 134 157 186 298 257 262 85 117 270 282 306 244 214 196 205 196 207 201 208 213 216 218 220 225 230 235 238 240 242 243 239 241 243
184 174 177 170 169 167 196 187 183 179 190 242 148 246 163 166 192 206 214 226 218 260 221 219 190 200 207 216 216 217 221 222 221 225 231 234 237 239 242 244 245 243 244
188 180 170 171 169 174 184 196 177 171 205 236 335 50 264 167 276 156 128 49 169 290 262 247 233 202 208 217 218 216 223 225 228 230 233 236 237 240 239 239 241 242 242
196 175 177 171 175 174 178 185 193 203 197 237 257 276 289 311 265 297 142 127 13 352 319 247 230 226 217 218 225 229 228 228 231 237 239 242 243 244 242 241 241 242 243
191 183 172 175 178 183 178 183 191 220 223 228 230 241 249 288 318 336 281 128 146 33 309 316 333 275 246 240 238 231 231 239 237 242 247 248 249 248 246 244 244 243 242
172 175 175 178 181 184 181 177 190 216 197 224 236 239 250 264 272 320 291 178 154 159 208 221 277 291 351 308 291 237 239 241 244 249 253 255 254 253 252 245 247 246 244
161 166 173 172 183 187 182 177 195 201 193 205 228 217 237 247 267 272 1 349 311 168 213 296 242 232 295 266 286 258 258 257 259 258 259 263 262 259 258 256 251 248 246
171 179 182 186 190 190 182 182 195 204 200 203 217 218 217 224 245 254 218 254 256 262 178 257 279 297 290 291 272 284 286 276 259 265 266 272 273 274 270 265 259 257 253
206 174 181 183 186 193 191 188 191 205 210 215 208 210 222 207 221 234 244 248 245 254 218 209 278 263 263 266 292 289 270 277 279 275 283 291 295 291 287 283 277 271 262
189 201 185 191 182 187 188 191 190 201 213 216 219 219 219 220 218 224 226 232 245 267 269 263 268 268 254 294 241 254 315 311 306 315 311 309 312 322 318 310 297 289 281
204 190 191 184 191 189 196 196 192 197 210 223 224 223 224 217 209 207 210 223 217 233 245 257 273 280 289 305 309 281 282 298 305 269 284 297 312 311 301 298 295 308 312
207 207 207 198 194 204 200 197 198 197 204 213 225 232 231 227 234 231 225 217 200 213 220 210 237 253 265 261 250 274 291 294 303 267 311 303 309 294 294 302 323 339 336
204 201 208 210 211 211 201 200 203 212 207 211 218 221 231 239 225 227 235 238 241 237 233 239 240 251 262 264 268 279 280 272 269 283 299 300 305 290 306 317 325 351 1
205 213 212 211 212 217 203 204 206 215 213 215 214 213 219 229 226 218 231 243 242 243 237 228 229 252 249 258 240 259 266 271 279 284 233 276 305 295 307 309 356 8 40
204 209 211 211 212 217 202 205 199 214 221 220 218 218 212 220 221 218 224 231 241 247 248 243 238 236 242 248 250 316 276 286 289 288 247 234 280 293 290 319 358 40 23
208 205 215 215 213 218 202 205 197 211 220 223 224 224 211 213 218 221 226 238 248 252 234 245 242 248 249 253 257 228 246 239 258 289 257 308 297 11 330 305 26 31 19